星链-5554 (STARLINK-5554 )

导读

STARLINK-5554是美国SpaceX公司星链(Starlink)星座的第二代卫星,于北京时间2023年4月27日发射入轨,属于星链全球卫星互联网组网计划的组成部分。星链项目计划在近地轨道部署数万颗卫星,旨在为全球偏远地区提供低延迟高速宽带服务,该卫星采用相控阵天线技术,支持高速星间激光通信,助力实现全球无缝网络覆盖。

Basic Information
目录编号:
56338
目录名称:
STARLINK-5554
国际标识:
2023-058X
轨道中心:
EARTH
卫星名称:
星链-5554
卫星全名:
星链-5554 (STARLINK-5554 )
卫星状态:
在轨 (已飞行1145 天)
发射日期:
2023-04-27 UTC
国别 :
美国 (US)
星等 :
--
Orbit Information
数据来源 国际轨道数据 AOE轨道数据
星历时间 2026-06-14T21:36:43+0800
14小时前
查看轨道信息
2026-06-09T07:00:00+0800
6天前
查看轨道信息
半长轴 6927.603km 6927.687km
偏心率 0.0001844 0.000175
轨道倾角 97.362° 97.387°
近地点辐角 102.357° 95.194°
升交点赤经 164.738° 159.376°
平近点角 257.786° 122.395°
近地点 548.188km 548.337km
远地点 550.744km 550.763km
周期 95.639分钟 95.641分钟
每日圈数 15.056649 15.056375
Detailed Information
固有亮度:
5
最大亮度:
2.5
卫星平台:
Starlink v1.5
覆盖范围:
全球
运营商:
太空探索技术公司
运营商所在国:
美国
制造商(研发单位):
太空探索技术公司
制造商所在国:
美国
使用方式:
暂无
Satellite Introduction
星链(Starlink)计划是由太空探索技术公司(SpaceX)提出的一个巨型低轨卫星互联网星座项目,计划在2019年至2024年间在太空搭建由约1.2万颗卫星组成的“星链”网络,其中1584颗将部署在地球上空550千米处的近地轨道,并从2020年开始工作。该卫星仍在工作。
2D Orbit Map
3D Orbit Map
Orbit Altitude Analysis Chart
Orbit Inclination Analysis Chart
Orbit Comprehensive Analysis Chart
View Comprehensive Chart